Marysville, CA

10:12 PM PDT on August 22, 2019 (GMT -0700)
Yuba County

Weather History for KMYV - June, 2019

Change the Weather History Date:

Tuesday, June 11, 2019

  Actual Average Record
Temperature  
Mean Temperature 82 °F -  
Max Temperature 102 °F 88 °F 105 °F (1986)
Min Temperature 64 °F 58 °F 50 °F (1952)
Cooling Degree Days 17    
Growing Degree Days 32 (Base 50)    
Moisture  
Dew Point 56 °F    
Average Humidity 40    
Maximum Humidity 75    
Minimum Humidity 19    
Precipitation  
Precipitation 0.00 in - - ()
Sea Level Pressure  
Sea Level Pressure 29.96 in    
Wind  
Wind Speed 4 mph (East)    
Max Wind Speed 7 mph    
Max Gust Speed -    
Visibility 10 miles    
Events      
Averages and records for this station are not official NWS values.
T = Trace of Precipitation, MM = Missing Value Source: NWS Daily Summary

Daily Weather History Graph

Daily Weather History Graph

Search for Another Location

Airport or City:

Astronomy

Jun. 11, 2019 Rise Set
Actual Time 5:39 AM PDT 8:32 PM PDT
Civil Twilight 5:07 AM PDT 9:04 PM PDT
Nautical Twilight 4:27 AM PDT 9:44 PM PDT
Astronomical Twilight 3:41 AM PDT 10:31 PM PDT
Moon 2:40 PM PDT (6/11) 2:23 AM PDT (6/11)
Length of Visible Light 15h 56m
Length of Day
14h 52m
Waxing Gibbous, 67% of the Moon is Illuminated
Jun 11
Waxing Gibbous
Jun 17
Full
Jun 25
Last Quarter
Jul 2
New
Jul 9
First Quarter

Hourly Weather History & Observations

Time (PDT) Temp. Heat Index Dew Point Humidity Pressure Visibility Wind Dir Wind Speed Gust Speed Precip Events Conditions
12:53 AM 73.0 °F - 54.0 °F 51% 29.98 in 10.0 mi East 3.5 mph - N/A   Unknown
1:53 AM 73.9 °F - 54.0 °F 50% 29.98 in 10.0 mi East 5.8 mph - N/A   Unknown
2:53 AM 70.0 °F - 53.1 °F 55% 29.98 in 10.0 mi NNE 3.5 mph - N/A   Unknown
3:53 AM 69.1 °F - 54.0 °F 58% 29.98 in 10.0 mi NE 3.5 mph - N/A   Unknown
4:53 AM 64.9 °F - 57.0 °F 75% 29.99 in 10.0 mi NNW 3.5 mph - N/A   Clear
5:53 AM 71.1 °F - 55.9 °F 59% 29.99 in 10.0 mi North 5.8 mph - N/A   Clear
6:53 AM 75.0 °F - 59.0 °F 57% 30.00 in 10.0 mi Calm Calm - N/A   Clear
7:53 AM 78.1 °F - 55.0 °F 45% 30.01 in 10.0 mi NE 4.6 mph - N/A   Unknown
8:53 AM 84.0 °F 83.0 °F 55.9 °F 38% 30.01 in 10.0 mi Calm Calm - N/A   Unknown
9:53 AM 87.1 °F 86.1 °F 57.9 °F 37% 30.01 in 10.0 mi Variable 3.5 mph - N/A   Clear
10:53 AM 91.9 °F 90.0 °F 55.0 °F 29% 30.01 in 10.0 mi Variable 4.6 mph - N/A   Clear
11:53 AM 95.0 °F 94.0 °F 57.9 °F 29% 29.99 in 10.0 mi Variable 5.8 mph - N/A   Clear
12:53 PM 96.1 °F 94.8 °F 57.0 °F 27% 29.98 in 10.0 mi WSW 6.9 mph - N/A   Clear
1:53 PM 98.1 °F 96.4 °F 55.9 °F 24% 29.97 in 10.0 mi SW 5.8 mph - N/A   Clear
2:53 PM 99.0 °F 97.7 °F 55.9 °F 24% 29.96 in 10.0 mi WSW 5.8 mph - N/A   Clear
3:53 PM 100.0 °F 99.2 °F 57.0 °F 24% 29.94 in 10.0 mi WSW 3.5 mph - N/A   Clear
4:53 PM 100.9 °F 98.7 °F 53.1 °F 20% 29.92 in 10.0 mi Variable 5.8 mph - N/A   Clear
5:53 PM 100.9 °F - 51.1 °F 19% 29.91 in 10.0 mi SSW 5.8 mph - N/A   Clear
6:53 PM 99.0 °F 96.5 °F 53.1 °F 21% 29.90 in 10.0 mi SE 6.9 mph - N/A   Clear
7:53 PM 93.9 °F 92.2 °F 55.9 °F 28% 29.90 in 10.0 mi ESE 4.6 mph - N/A   Clear
8:53 PM 87.1 °F 86.5 °F 59.0 °F 39% 29.90 in 10.0 mi SE 5.8 mph - N/A   Clear
9:53 PM 84.0 °F 84.5 °F 62.1 °F 47% 29.91 in - North - - N/A   Unknown
10:53 PM 80.1 °F 81.5 °F 63.0 °F 56% 29.92 in 10.0 mi East 3.5 mph - N/A   Clear
11:53 PM 80.1 °F 81.2 °F 62.1 °F 54% 29.92 in 10.0 mi East 5.8 mph - N/A   Clear